Total_Precipitation_Accumulation
0.47 0.44 0.53 0.62 0.58 0.60 0.75 0.77 0.67 0.43 0.39 0.44 0.39 0.34 0.31 0.28 0.26 0.27 0.32 0.33 0.32 0.33 0.37 0.43 0.48 0.51 0.48 0.51 0.59 0.70 0.86 0.99 1.07 1.14 1.26 1.34 1.39 1.43 1.44 1.53 1.59 1.58 1.61 1.62
0.45 0.31 0.37 0.46 0.40 0.42 0.44 0.41 0.44 0.37 0.43 0.45 0.39 0.32 0.30 0.30 0.29 0.30 0.35 0.35 0.35 0.37 0.40 0.45 0.46 0.48 0.45 0.46 0.54 0.64 0.80 0.88 0.97 1.12 1.24 1.39 1.42 1.50 1.54 1.56 1.60 1.59 1.57 1.59
0.76 0.37 0.55 0.70 0.48 0.42 0.41 0.39 0.39 0.46 0.50 0.44 0.39 0.36 0.35 0.33 0.33 0.33 0.34 0.34 0.34 0.38 0.43 0.47 0.48 0.46 0.44 0.45 0.50 0.56 0.69 0.80 0.88 1.04 1.15 1.26 1.31 1.34 1.40 1.35 1.32 1.37 1.45 1.40
1.08 0.80 1.12 0.64 0.36 0.35 0.37 0.40 0.39 0.42 0.44 0.43 0.44 0.42 0.38 0.36 0.36 0.36 0.35 0.34 0.33 0.35 0.39 0.42 0.45 0.48 0.47 0.45 0.49 0.56 0.63 0.74 0.77 0.91 1.05 1.10 1.17 1.21 1.23 1.18 1.16 1.23 1.25 1.17
1.40 1.08 0.67 0.34 0.27 0.37 0.44 0.51 0.41 0.37 0.36 0.36 0.37 0.39 0.43 0.40 0.35 0.36 0.34 0.33 0.32 0.33 0.35 0.36 0.40 0.45 0.46 0.48 0.49 0.53 0.60 0.68 0.71 0.80 0.97 0.99 1.06 1.14 1.12 1.14 1.14 1.11 1.07 1.02
1.51 1.15 0.63 0.35 0.21 0.25 0.39 0.60 0.39 0.33 0.36 0.38 0.37 0.55 0.56 0.48 0.41 0.38 0.33 0.30 0.31 0.33 0.32 0.34 0.36 0.38 0.40 0.43 0.45 0.50 0.57 0.64 0.68 0.72 0.85 0.86 0.90 0.97 1.00 1.01 1.05 1.07 1.04 0.98
1.24 0.97 0.48 0.29 0.22 0.25 0.64 0.76 0.38 0.33 0.36 0.37 0.44 0.55 0.52 0.46 0.42 0.39 0.37 0.35 0.33 0.34 0.35 0.36 0.37 0.39 0.42 0.41 0.41 0.46 0.51 0.56 0.63 0.70 0.77 0.78 0.81 0.85 0.92 0.95 0.99 1.02 1.03 0.97
0.92 1.01 0.58 0.28 0.30 0.53 0.65 0.39 0.32 0.32 0.32 0.34 0.34 0.32 0.34 0.37 0.38 0.37 0.39 0.39 0.37 0.37 0.38 0.38 0.39 0.40 0.39 0.42 0.41 0.42 0.49 0.55 0.60 0.67 0.71 0.74 0.78 0.84 0.86 0.94 1.05 1.06 1.02 1.00
0.69 0.64 0.46 0.35 0.41 0.44 0.35 0.30 0.27 0.30 0.31 0.31 0.32 0.30 0.32 0.33 0.34 0.34 0.36 0.38 0.37 0.39 0.42 0.42 0.42 0.41 0.39 0.40 0.41 0.43 0.48 0.53 0.61 0.66 0.66 0.74 0.80 0.86 0.91 0.98 1.07 1.07 1.01 0.98
0.44 0.35 0.30 0.30 0.30 0.30 0.28 0.26 0.25 0.26 0.30 0.29 0.30 0.29 0.30 0.29 0.31 0.33 0.33 0.33 0.33 0.36 0.41 0.44 0.44 0.44 0.42 0.42 0.43 0.45 0.49 0.51 0.57 0.67 0.70 0.72 0.78 0.85 0.89 0.93 1.07 1.12 1.07 1.03
0.39 0.28 0.24 0.23 0.23 0.25 0.26 0.22 0.20 0.21 0.24 0.25 0.26 0.26 0.27 0.29 0.31 0.32 0.33 0.32 0.31 0.34 0.38 0.43 0.44 0.44 0.44 0.47 0.50 0.51 0.50 0.50 0.55 0.65 0.70 0.70 0.75 0.81 0.86 0.88 1.08 1.25 1.17 1.16
0.37 0.25 0.27 0.24 0.20 0.19 0.22 0.21 0.19 0.21 0.24 0.23 0.23 0.26 0.26 0.27 0.29 0.29 0.30 0.31 0.31 0.31 0.34 0.38 0.40 0.42 0.45 0.50 0.55 0.57 0.55 0.55 0.58 0.66 0.68 0.69 0.73 0.79 0.88 0.90 0.96 0.99 1.05 1.15
0.26 0.21 0.21 0.19 0.15 0.15 0.18 0.20 0.18 0.20 0.24 0.26 0.23 0.23 0.27 0.29 0.30 0.29 0.28 0.29 0.31 0.32 0.33 0.34 0.35 0.39 0.44 0.51 0.54 0.56 0.59 0.61 0.64 0.67 0.69 0.71 0.69 0.73 0.84 0.85 0.85 0.87 0.91 0.98
0.19 0.19 0.20 0.15 0.14 0.13 0.15 0.17 0.16 0.16 0.18 0.22 0.24 0.25 0.28 0.30 0.29 0.29 0.29 0.29 0.28 0.30 0.31 0.32 0.33 0.36 0.43 0.51 0.56 0.59 0.63 0.68 0.70 0.70 0.70 0.71 0.69 0.69 0.76 0.85 0.93 0.94 0.96 1.00
0.17 0.18 0.19 0.15 0.12 0.11 0.12 0.14 0.16 0.18 0.19 0.21 0.24 0.27 0.30 0.32 0.31 0.29 0.29 0.27 0.26 0.27 0.30 0.32 0.34 0.38 0.42 0.49 0.56 0.62 0.68 0.72 0.73 0.73 0.73 0.70 0.69 0.72 0.74 0.79 0.88 0.99 1.04 1.08
0.19 0.17 0.15 0.14 0.13 0.13 0.14 0.15 0.19 0.21 0.22 0.24 0.24 0.27 0.31 0.34 0.35 0.32 0.31 0.30 0.30 0.30 0.32 0.35 0.37 0.41 0.45 0.50 0.56 0.64 0.72 0.82 0.83 0.80 0.78 0.74 0.73 0.75 0.78 0.82 0.87 0.94 1.03 1.08
0.26 0.22 0.18 0.17 0.16 0.16 0.17 0.19 0.22 0.23 0.23 0.25 0.27 0.28 0.30 0.33 0.35 0.34 0.33 0.32 0.33 0.34 0.34 0.36 0.41 0.44 0.47 0.53 0.61 0.70 0.77 0.82 0.86 0.84 0.83 0.82 0.82 0.82 0.84 0.88 0.92 0.92 0.95 1.04
0.24 0.24 0.22 0.21 0.21 0.19 0.18 0.18 0.20 0.21 0.24 0.26 0.27 0.28 0.30 0.34 0.37 0.38 0.36 0.35 0.34 0.33 0.34 0.38 0.46 0.48 0.49 0.56 0.66 0.73 0.79 0.81 0.78 0.81 0.85 0.88 0.91 0.90 0.90 0.91 0.91 0.93 0.95 1.00
0.19 0.19 0.18 0.17 0.18 0.19 0.19 0.19 0.20 0.21 0.22 0.24 0.26 0.28 0.31 0.36 0.40 0.42 0.40 0.39 0.37 0.37 0.40 0.44 0.52 0.51 0.54 0.63 0.73 0.76 0.81 0.83 0.81 0.81 0.84 0.92 0.91 0.86 0.88 0.90 0.94 0.96 0.96 0.97
0.17 0.18 0.18 0.17 0.17 0.18 0.19 0.19 0.19 0.19 0.22 0.24 0.26 0.27 0.29 0.34 0.39 0.43 0.42 0.41 0.43 0.46 0.47 0.51 0.52 0.52 0.59 0.70 0.81 0.81 0.82 0.81 0.83 0.86 0.88 0.89 0.88 0.88 0.88 0.89 0.96 1.02 1.01 0.98
0.19 0.20 0.20 0.19 0.18 0.17 0.18 0.20 0.21 0.22 0.24 0.27 0.31 0.33 0.35 0.37 0.41 0.44 0.44 0.44 0.45 0.48 0.50 0.53 0.54 0.61 0.70 0.81 0.84 0.80 0.80 0.81 0.84 0.91 0.94 0.93 0.93 0.92 0.91 0.92 0.97 1.02 1.02 0.99
0.22 0.24 0.24 0.23 0.23 0.21 0.21 0.23 0.25 0.25 0.27 0.29 0.33 0.37 0.40 0.42 0.44 0.45 0.46 0.49 0.53 0.57 0.54 0.50 0.56 0.69 0.82 0.84 0.76 0.76 0.77 0.80 0.85 0.93 0.98 0.97 0.97 0.97 0.94 0.94 1.00 1.00 0.99 0.98
0.27 0.28 0.29 0.30 0.31 0.31 0.28 0.30 0.31 0.32 0.35 0.37 0.40 0.42 0.44 0.47 0.49 0.51 0.51 0.51 0.53 0.57 0.54 0.54 0.60 0.72 0.80 0.74 0.70 0.71 0.74 0.78 0.85 0.94 0.98 1.00 1.01 1.01 0.99 0.99 1.02 1.04 1.04 1.00
0.30 0.31 0.34 0.35 0.35 0.33 0.33 0.34 0.35 0.38 0.41 0.43 0.46 0.48 0.49 0.49 0.49 0.51 0.53 0.54 0.56 0.57 0.56 0.59 0.64 0.71 0.75 0.70 0.67 0.70 0.75 0.80 0.89 0.98 1.02 1.03 1.03 1.01 1.02 1.06 1.10 1.07 1.01 0.96
0.35 0.35 0.36 0.36 0.38 0.38 0.38 0.35 0.34 0.36 0.38 0.40 0.43 0.44 0.47 0.52 0.58 0.58 0.54 0.53 0.55 0.57 0.56 0.60 0.65 0.69 0.69 0.67 0.67 0.72 0.79 0.87 1.02 1.14 1.15 1.10 1.05 1.04 1.03 1.07 1.12 1.09 1.03 0.97
0.41 0.42 0.43 0.44 0.46 0.46 0.44 0.42 0.41 0.41 0.42 0.42 0.41 0.42 0.46 0.51 0.58 0.61 0.58 0.56 0.56 0.59 0.60 0.63 0.65 0.67 0.67 0.68 0.71 0.76 0.82 0.90 1.03 1.10 1.07 1.04 1.03 1.04 1.05 1.07 1.07 1.06 1.03 1.00
0.46 0.45 0.44 0.46 0.47 0.48 0.51 0.52 0.53 0.53 0.54 0.54 0.52 0.48 0.50 0.55 0.58 0.59 0.57 0.56 0.57 0.59 0.61 0.65 0.67 0.67 0.68 0.71 0.76 0.81 0.83 0.88 1.00 1.11 1.10 1.06 1.05 1.06 1.04 1.04 1.05 1.06 1.06 1.03